Data supplied by UK-AIR on 27/11/2015
All Data GMT hour ending 
Status: R =Ratified P=Provisional,P*=As supplied
,,Exeter Roadside,,,,,,,,,,,,,,,,,,,,,,,
Date,time,"Nitric oxide",status,unit,"Nitrogen dioxide",status,unit,"Nitrogen oxides as nitrogen dioxide",status,unit,"Ozone",status,unit
 
01-01-2012,01:00,6.00000,R,ugm-3,17.00000,R,ugm-3,27.00000,R,ugm-3,42.00000,R,ugm-3
01-01-2012,02:00,9.00000,R,ugm-3,17.00000,R,ugm-3,31.00000,R,ugm-3,44.00000,R,ugm-3
01-01-2012,03:00,6.00000,R,ugm-3,10.00000,R,ugm-3,19.00000,R,ugm-3,50.00000,R,ugm-3
01-01-2012,04:00,4.00000,R,ugm-3,8.00000,R,ugm-3,13.00000,R,ugm-3,54.00000,R,ugm-3
01-01-2012,05:00,0.00000,R,ugm-3,4.00000,R,ugm-3,4.00000,R,ugm-3,58.00000,R,ugm-3
01-01-2012,06:00,1.00000,R,ugm-3,2.00000,R,ugm-3,4.00000,R,ugm-3,62.00000,R,ugm-3
01-01-2012,07:00,0.00000,R,ugm-3,4.00000,R,ugm-3,4.00000,R,ugm-3,62.00000,R,ugm-3
01-01-2012,08:00,1.00000,R,ugm-3,4.00000,R,ugm-3,6.00000,R,ugm-3,62.00000,R,ugm-3
01-01-2012,09:00,2.00000,R,ugm-3,4.00000,R,ugm-3,8.00000,R,ugm-3,60.00000,R,ugm-3
01-01-2012,10:00,1.00000,R,ugm-3,6.00000,R,ugm-3,8.00000,R,ugm-3,60.00000,R,ugm-3
01-01-2012,11:00,2.00000,R,ugm-3,13.00000,R,ugm-3,17.00000,R,ugm-3,54.00000,R,ugm-3
01-01-2012,12:00,5.00000,R,ugm-3,15.00000,R,ugm-3,23.00000,R,ugm-3,52.00000,R,ugm-3
01-01-2012,13:00,2.00000,R,ugm-3,13.00000,R,ugm-3,17.00000,R,ugm-3,56.00000,R,ugm-3
01-01-2012,14:00,4.00000,R,ugm-3,13.00000,R,ugm-3,19.00000,R,ugm-3,54.00000,R,ugm-3
01-01-2012,15:00,7.00000,R,ugm-3,15.00000,R,ugm-3,27.00000,R,ugm-3,46.00000,R,ugm-3
01-01-2012,16:00,5.00000,R,ugm-3,8.00000,R,ugm-3,15.00000,R,ugm-3,58.00000,R,ugm-3
01-01-2012,17:00,2.00000,R,ugm-3,11.00000,R,ugm-3,15.00000,R,ugm-3,54.00000,R,ugm-3
01-01-2012,18:00,1.00000,R,ugm-3,8.00000,R,ugm-3,10.00000,R,ugm-3,54.00000,R,ugm-3
01-01-2012,19:00,2.00000,R,ugm-3,6.00000,R,ugm-3,10.00000,R,ugm-3,50.00000,R,ugm-3
01-01-2012,20:00,4.00000,R,ugm-3,8.00000,R,ugm-3,13.00000,R,ugm-3,50.00000,R,ugm-3
01-01-2012,21:00,5.00000,R,ugm-3,11.00000,R,ugm-3,19.00000,R,ugm-3,50.00000,R,ugm-3
01-01-2012,22:00,2.00000,R,ugm-3,8.00000,R,ugm-3,11.00000,R,ugm-3,52.00000,R,ugm-3
01-01-2012,23:00,1.00000,R,ugm-3,8.00000,R,ugm-3,10.00000,R,ugm-3,56.00000,R,ugm-3
01-01-2012,24:00,1.00000,R,ugm-3,6.00000,R,ugm-3,8.00000,R,ugm-3,54.00000,R,ugm-3
02-01-2012,01:00,0.00000,R,ugm-3,2.00000,R,ugm-3,2.00000,R,ugm-3,60.00000,R,ugm-3
02-01-2012,02:00,0.00000,R,ugm-3,0.00000,R,ugm-3,0.00000,R,ugm-3,64.00000,R,ugm-3
02-01-2012,03:00,0.00000,R,ugm-3,0.00000,R,ugm-3,0.00000,R,ugm-3,68.00000,R,ugm-3
02-01-2012,04:00,0.00000,R,ugm-3,2.00000,R,ugm-3,2.00000,R,ugm-3,64.00000,R,ugm-3
02-01-2012,05:00,2.00000,R,ugm-3,6.00000,R,ugm-3,10.00000,R,ugm-3,62.00000,R,ugm-3
02-01-2012,06:00,4.00000,R,ugm-3,10.00000,R,ugm-3,15.00000,R,ugm-3,58.00000,R,ugm-3
02-01-2012,07:00,7.00000,R,ugm-3,13.00000,R,ugm-3,25.00000,R,ugm-3,52.00000,R,ugm-3
02-01-2012,08:00,5.00000,R,ugm-3,11.00000,R,ugm-3,19.00000,R,ugm-3,54.00000,R,ugm-3
02-01-2012,09:00,5.00000,R,ugm-3,13.00000,R,ugm-3,21.00000,R,ugm-3,58.00000,R,ugm-3
02-01-2012,10:00,16.00000,R,ugm-3,29.00000,R,ugm-3,54.00000,R,ugm-3,48.00000,R,ugm-3
02-01-2012,11:00,40.00000,R,ugm-3,48.00000,R,ugm-3,109.00000,R,ugm-3,32.00000,R,ugm-3
02-01-2012,12:00,24.00000,R,ugm-3,29.00000,R,ugm-3,65.00000,R,ugm-3,46.00000,R,ugm-3
02-01-2012,13:00,12.00000,R,ugm-3,21.00000,R,ugm-3,40.00000,R,ugm-3,52.00000,R,ugm-3
02-01-2012,14:00,17.00000,R,ugm-3,27.00000,R,ugm-3,54.00000,R,ugm-3,46.00000,R,ugm-3
02-01-2012,15:00,20.00000,R,ugm-3,25.00000,R,ugm-3,55.00000,R,ugm-3,48.00000,R,ugm-3
02-01-2012,16:00,16.00000,R,ugm-3,25.00000,R,ugm-3,50.00000,R,ugm-3,48.00000,R,ugm-3
02-01-2012,17:00,9.00000,R,ugm-3,27.00000,R,ugm-3,40.00000,R,ugm-3,46.00000,R,ugm-3
02-01-2012,18:00,9.00000,R,ugm-3,27.00000,R,ugm-3,40.00000,R,ugm-3,40.00000,R,ugm-3
02-01-2012,19:00,2.00000,R,ugm-3,13.00000,R,ugm-3,17.00000,R,ugm-3,54.00000,R,ugm-3
02-01-2012,20:00,4.00000,R,ugm-3,11.00000,R,ugm-3,17.00000,R,ugm-3,56.00000,R,ugm-3
02-01-2012,21:00,1.00000,R,ugm-3,11.00000,R,ugm-3,13.00000,R,ugm-3,58.00000,R,ugm-3
02-01-2012,22:00,2.00000,R,ugm-3,6.00000,R,ugm-3,10.00000,R,ugm-3,62.00000,R,ugm-3
02-01-2012,23:00,0.00000,R,ugm-3,4.00000,R,ugm-3,4.00000,R,ugm-3,64.00000,R,ugm-3
02-01-2012,24:00,0.00000,R,ugm-3,2.00000,R,ugm-3,2.00000,R,ugm-3,66.00000,R,ugm-3
03-01-2012,01:00,0.00000,R,ugm-3,4.00000,R,ugm-3,4.00000,R,ugm-3,68.00000,R,ugm-3
03-01-2012,02:00,0.00000,R,ugm-3,2.00000,R,ugm-3,2.00000,R,ugm-3,68.00000,R,ugm-3
03-01-2012,03:00,0.00000,R,ugm-3,2.00000,R,ugm-3,2.00000,R,ugm-3,66.00000,R,ugm-3
03-01-2012,04:00,0.00000,R,ugm-3,2.00000,R,ugm-3,2.00000,R,ugm-3,66.00000,R,ugm-3
03-01-2012,05:00,0.00000,R,ugm-3,4.00000,R,ugm-3,4.00000,R,ugm-3,66.00000,R,ugm-3
03-01-2012,06:00,1.00000,R,ugm-3,6.00000,R,ugm-3,8.00000,R,ugm-3,66.00000,R,ugm-3
03-01-2012,07:00,2.00000,R,ugm-3,10.00000,R,ugm-3,13.00000,R,ugm-3,64.00000,R,ugm-3
03-01-2012,08:00,4.00000,R,ugm-3,11.00000,R,ugm-3,17.00000,R,ugm-3,62.00000,R,ugm-3
03-01-2012,09:00,5.00000,R,ugm-3,10.00000,R,ugm-3,17.00000,R,ugm-3,62.00000,R,ugm-3
03-01-2012,10:00,10.00000,R,ugm-3,15.00000,R,ugm-3,31.00000,R,ugm-3,62.00000,R,ugm-3
03-01-2012,11:00,7.00000,R,ugm-3,13.00000,R,ugm-3,25.00000,R,ugm-3,64.00000,R,ugm-3
03-01-2012,12:00,7.00000,R,ugm-3,11.00000,R,ugm-3,23.00000,R,ugm-3,62.00000,R,ugm-3
03-01-2012,13:00,5.00000,R,ugm-3,10.00000,R,ugm-3,17.00000,R,ugm-3,62.00000,R,ugm-3
03-01-2012,14:00,7.00000,R,ugm-3,13.00000,R,ugm-3,25.00000,R,ugm-3,60.00000,R,ugm-3
03-01-2012,15:00,9.00000,R,ugm-3,13.00000,R,ugm-3,27.00000,R,ugm-3,54.00000,R,ugm-3
03-01-2012,16:00,9.00000,R,ugm-3,15.00000,R,ugm-3,29.00000,R,ugm-3,52.00000,R,ugm-3
03-01-2012,17:00,6.00000,R,ugm-3,17.00000,R,ugm-3,27.00000,R,ugm-3,54.00000,R,ugm-3
03-01-2012,18:00,4.00000,R,ugm-3,15.00000,R,ugm-3,21.00000,R,ugm-3,58.00000,R,ugm-3
03-01-2012,19:00,11.00000,R,ugm-3,15.00000,R,ugm-3,33.00000,R,ugm-3,56.00000,R,ugm-3
03-01-2012,20:00,2.00000,R,ugm-3,8.00000,R,ugm-3,11.00000,R,ugm-3,66.00000,R,ugm-3
03-01-2012,21:00,2.00000,R,ugm-3,8.00000,R,ugm-3,11.00000,R,ugm-3,64.00000,R,ugm-3
03-01-2012,22:00,1.00000,R,ugm-3,8.00000,R,ugm-3,10.00000,R,ugm-3,64.00000,R,ugm-3
03-01-2012,23:00,1.00000,R,ugm-3,6.00000,R,ugm-3,8.00000,R,ugm-3,66.00000,R,ugm-3
03-01-2012,24:00,0.00000,R,ugm-3,4.00000,R,ugm-3,4.00000,R,ugm-3,68.00000,R,ugm-3
04-01-2012,01:00,0.00000,R,ugm-3,4.00000,R,ugm-3,4.00000,R,ugm-3,68.00000,R,ugm-3
04-01-2012,02:00,0.00000,R,ugm-3,4.00000,R,ugm-3,4.00000,R,ugm-3,66.00000,R,ugm-3
04-01-2012,03:00,0.00000,R,ugm-3,6.00000,R,ugm-3,6.00000,R,ugm-3,62.00000,R,ugm-3
04-01-2012,04:00,0.00000,R,ugm-3,6.00000,R,ugm-3,6.00000,R,ugm-3,60.00000,R,ugm-3
04-01-2012,05:00,2.00000,R,ugm-3,8.00000,R,ugm-3,11.00000,R,ugm-3,56.00000,R,ugm-3
04-01-2012,06:00,4.00000,R,ugm-3,11.00000,R,ugm-3,17.00000,R,ugm-3,54.00000,R,ugm-3
04-01-2012,07:00,16.00000,R,ugm-3,19.00000,R,ugm-3,44.00000,R,ugm-3,40.00000,R,ugm-3
04-01-2012,08:00,49.00000,R,ugm-3,52.00000,R,ugm-3,126.00000,R,ugm-3,26.00000,R,ugm-3
04-01-2012,09:00,42.00000,R,ugm-3,42.00000,R,ugm-3,107.00000,R,ugm-3,38.00000,R,ugm-3
04-01-2012,10:00,26.00000,R,ugm-3,29.00000,R,ugm-3,69.00000,R,ugm-3,46.00000,R,ugm-3
04-01-2012,11:00,15.00000,R,ugm-3,25.00000,R,ugm-3,48.00000,R,ugm-3,52.00000,R,ugm-3
04-01-2012,12:00,7.00000,R,ugm-3,17.00000,R,ugm-3,29.00000,R,ugm-3,58.00000,R,ugm-3
04-01-2012,13:00,9.00000,R,ugm-3,11.00000,R,ugm-3,25.00000,R,ugm-3,60.00000,R,ugm-3
04-01-2012,14:00,17.00000,R,ugm-3,17.00000,R,ugm-3,44.00000,R,ugm-3,54.00000,R,ugm-3
04-01-2012,15:00,19.00000,R,ugm-3,21.00000,R,ugm-3,50.00000,R,ugm-3,54.00000,R,ugm-3
04-01-2012,16:00,14.00000,R,ugm-3,15.00000,R,ugm-3,36.00000,R,ugm-3,58.00000,R,ugm-3
04-01-2012,17:00,10.00000,R,ugm-3,13.00000,R,ugm-3,29.00000,R,ugm-3,58.00000,R,ugm-3
04-01-2012,18:00,2.00000,R,ugm-3,10.00000,R,ugm-3,13.00000,R,ugm-3,66.00000,R,ugm-3
04-01-2012,19:00,2.00000,R,ugm-3,6.00000,R,ugm-3,10.00000,R,ugm-3,66.00000,R,ugm-3
04-01-2012,20:00,1.00000,R,ugm-3,4.00000,R,ugm-3,6.00000,R,ugm-3,66.00000,R,ugm-3
04-01-2012,21:00,1.00000,R,ugm-3,4.00000,R,ugm-3,6.00000,R,ugm-3,66.00000,R,ugm-3
04-01-2012,22:00,1.00000,R,ugm-3,4.00000,R,ugm-3,6.00000,R,ugm-3,68.00000,R,ugm-3
04-01-2012,23:00,0.00000,R,ugm-3,2.00000,R,ugm-3,2.00000,R,ugm-3,68.00000,R,ugm-3
04-01-2012,24:00,0.00000,R,ugm-3,2.00000,R,ugm-3,2.00000,R,ugm-3,70.00000,R,ugm-3
05-01-2012,01:00,0.00000,R,ugm-3,2.00000,R,ugm-3,2.00000,R,ugm-3,70.00000,R,ugm-3
05-01-2012,02:00,0.00000,R,ugm-3,0.00000,R,ugm-3,0.00000,R,ugm-3,70.00000,R,ugm-3
05-01-2012,03:00,0.00000,R,ugm-3,2.00000,R,ugm-3,2.00000,R,ugm-3,70.00000,R,ugm-3
05-01-2012,04:00,0.00000,R,ugm-3,2.00000,R,ugm-3,2.00000,R,ugm-3,70.00000,R,ugm-3
05-01-2012,05:00,1.00000,R,ugm-3,4.00000,R,ugm-3,6.00000,R,ugm-3,68.00000,R,ugm-3
05-01-2012,06:00,2.00000,R,ugm-3,8.00000,R,ugm-3,11.00000,R,ugm-3,66.00000,R,ugm-3
05-01-2012,07:00,7.00000,R,ugm-3,11.00000,R,ugm-3,23.00000,R,ugm-3,62.00000,R,ugm-3
05-01-2012,08:00,6.00000,R,ugm-3,13.00000,R,ugm-3,23.00000,R,ugm-3,64.00000,R,ugm-3
05-01-2012,09:00,11.00000,R,ugm-3,13.00000,R,ugm-3,31.00000,R,ugm-3,60.00000,R,ugm-3
05-01-2012,10:00,14.00000,R,ugm-3,15.00000,R,ugm-3,36.00000,R,ugm-3,56.00000,R,ugm-3
05-01-2012,11:00,29.00000,R,ugm-3,15.00000,R,ugm-3,59.00000,R,ugm-3,52.00000,R,ugm-3
05-01-2012,12:00,20.00000,R,ugm-3,17.00000,R,ugm-3,48.00000,R,ugm-3,46.00000,R,ugm-3
05-01-2012,13:00,19.00000,R,ugm-3,17.00000,R,ugm-3,46.00000,R,ugm-3,46.00000,R,ugm-3
05-01-2012,14:00,24.00000,R,ugm-3,21.00000,R,ugm-3,57.00000,R,ugm-3,46.00000,R,ugm-3
05-01-2012,15:00,37.00000,R,ugm-3,25.00000,R,ugm-3,82.00000,R,ugm-3,42.00000,R,ugm-3
05-01-2012,16:00,37.00000,R,ugm-3,29.00000,R,ugm-3,86.00000,R,ugm-3,42.00000,R,ugm-3
05-01-2012,17:00,25.00000,R,ugm-3,23.00000,R,ugm-3,61.00000,R,ugm-3,44.00000,R,ugm-3
05-01-2012,18:00,17.00000,R,ugm-3,21.00000,R,ugm-3,48.00000,R,ugm-3,46.00000,R,ugm-3
05-01-2012,19:00,11.00000,R,ugm-3,17.00000,R,ugm-3,34.00000,R,ugm-3,46.00000,R,ugm-3
05-01-2012,20:00,10.00000,R,ugm-3,13.00000,R,ugm-3,29.00000,R,ugm-3,46.00000,R,ugm-3
05-01-2012,21:00,7.00000,R,ugm-3,17.00000,R,ugm-3,29.00000,R,ugm-3,44.00000,R,ugm-3
05-01-2012,22:00,10.00000,R,ugm-3,10.00000,R,ugm-3,25.00000,R,ugm-3,48.00000,R,ugm-3
05-01-2012,23:00,4.00000,R,ugm-3,8.00000,R,ugm-3,13.00000,R,ugm-3,50.00000,R,ugm-3
05-01-2012,24:00,1.00000,R,ugm-3,6.00000,R,ugm-3,8.00000,R,ugm-3,52.00000,R,ugm-3
06-01-2012,01:00,1.00000,R,ugm-3,4.00000,R,ugm-3,6.00000,R,ugm-3,50.00000,R,ugm-3
06-01-2012,02:00,0.00000,R,ugm-3,4.00000,R,ugm-3,4.00000,R,ugm-3,50.00000,R,ugm-3
06-01-2012,03:00,0.00000,R,ugm-3,4.00000,R,ugm-3,4.00000,R,ugm-3,52.00000,R,ugm-3
06-01-2012,04:00,1.00000,R,ugm-3,6.00000,R,ugm-3,8.00000,R,ugm-3,48.00000,R,ugm-3
06-01-2012,05:00,14.00000,R,ugm-3,23.00000,R,ugm-3,44.00000,R,ugm-3,30.00000,R,ugm-3
06-01-2012,06:00,46.00000,R,ugm-3,29.00000,R,ugm-3,99.00000,R,ugm-3,20.00000,R,ugm-3
06-01-2012,07:00,138.00000,R,ugm-3,55.00000,R,ugm-3,268.00000,R,ugm-3,4.00000,R,ugm-3
06-01-2012,08:00,238.00000,R,ugm-3,96.00000,R,ugm-3,461.00000,R,ugm-3,2.00000,R,ugm-3
06-01-2012,09:00,220.00000,R,ugm-3,88.00000,R,ugm-3,425.00000,R,ugm-3,2.00000,R,ugm-3
06-01-2012,10:00,168.00000,R,ugm-3,82.00000,R,ugm-3,340.00000,R,ugm-3,6.00000,R,ugm-3
06-01-2012,11:00,,,,,,,,,,10.00000,R,ugm-3
06-01-2012,12:00,,,,,,,,,,30.00000,R,ugm-3
06-01-2012,13:00,24.00000,R,ugm-3,33.00000,R,ugm-3,69.00000,R,ugm-3,32.00000,R,ugm-3
06-01-2012,14:00,30.00000,R,ugm-3,33.00000,R,ugm-3,78.00000,R,ugm-3,32.00000,R,ugm-3
06-01-2012,15:00,67.00000,R,ugm-3,44.00000,R,ugm-3,147.00000,R,ugm-3,14.00000,R,ugm-3
06-01-2012,16:00,49.00000,R,ugm-3,42.00000,R,ugm-3,117.00000,R,ugm-3,20.00000,R,ugm-3
06-01-2012,17:00,31.00000,R,ugm-3,34.00000,R,ugm-3,82.00000,R,ugm-3,22.00000,R,ugm-3
06-01-2012,18:00,9.00000,R,ugm-3,19.00000,R,ugm-3,33.00000,R,ugm-3,48.00000,R,ugm-3
06-01-2012,19:00,4.00000,R,ugm-3,13.00000,R,ugm-3,19.00000,R,ugm-3,52.00000,R,ugm-3
06-01-2012,20:00,2.00000,R,ugm-3,8.00000,R,ugm-3,11.00000,R,ugm-3,52.00000,R,ugm-3
06-01-2012,21:00,2.00000,R,ugm-3,8.00000,R,ugm-3,11.00000,R,ugm-3,52.00000,R,ugm-3
06-01-2012,22:00,2.00000,R,ugm-3,4.00000,R,ugm-3,8.00000,R,ugm-3,54.00000,R,ugm-3
06-01-2012,23:00,1.00000,R,ugm-3,4.00000,R,ugm-3,6.00000,R,ugm-3,54.00000,R,ugm-3
06-01-2012,24:00,0.00000,R,ugm-3,2.00000,R,ugm-3,2.00000,R,ugm-3,56.00000,R,ugm-3
07-01-2012,01:00,1.00000,R,ugm-3,2.00000,R,ugm-3,4.00000,R,ugm-3,60.00000,R,ugm-3
07-01-2012,02:00,0.00000,R,ugm-3,2.00000,R,ugm-3,2.00000,R,ugm-3,60.00000,R,ugm-3
07-01-2012,03:00,0.00000,R,ugm-3,0.00000,R,ugm-3,0.00000,R,ugm-3,60.00000,R,ugm-3
07-01-2012,04:00,0.00000,R,ugm-3,0.00000,R,ugm-3,0.00000,R,ugm-3,60.00000,R,ugm-3
07-01-2012,05:00,1.00000,R,ugm-3,4.00000,R,ugm-3,6.00000,R,ugm-3,54.00000,R,ugm-3
07-01-2012,06:00,4.00000,R,ugm-3,8.00000,R,ugm-3,13.00000,R,ugm-3,54.00000,R,ugm-3
07-01-2012,07:00,14.00000,R,ugm-3,11.00000,R,ugm-3,33.00000,R,ugm-3,54.00000,R,ugm-3
07-01-2012,08:00,25.00000,R,ugm-3,19.00000,R,ugm-3,57.00000,R,ugm-3,50.00000,R,ugm-3
07-01-2012,09:00,31.00000,R,ugm-3,29.00000,R,ugm-3,77.00000,R,ugm-3,42.00000,R,ugm-3
07-01-2012,10:00,41.00000,R,ugm-3,31.00000,R,ugm-3,94.00000,R,ugm-3,40.00000,R,ugm-3
07-01-2012,11:00,40.00000,R,ugm-3,34.00000,R,ugm-3,96.00000,R,ugm-3,40.00000,R,ugm-3
07-01-2012,12:00,36.00000,R,ugm-3,33.00000,R,ugm-3,88.00000,R,ugm-3,40.00000,R,ugm-3
07-01-2012,13:00,25.00000,R,ugm-3,29.00000,R,ugm-3,67.00000,R,ugm-3,40.00000,R,ugm-3
07-01-2012,14:00,55.00000,R,ugm-3,38.00000,R,ugm-3,122.00000,R,ugm-3,36.00000,R,ugm-3
07-01-2012,15:00,44.00000,R,ugm-3,44.00000,R,ugm-3,111.00000,R,ugm-3,34.00000,R,ugm-3
07-01-2012,16:00,32.00000,R,ugm-3,36.00000,R,ugm-3,86.00000,R,ugm-3,30.00000,R,ugm-3
07-01-2012,17:00,12.00000,R,ugm-3,27.00000,R,ugm-3,46.00000,R,ugm-3,38.00000,R,ugm-3
07-01-2012,18:00,7.00000,R,ugm-3,21.00000,R,ugm-3,33.00000,R,ugm-3,46.00000,R,ugm-3
07-01-2012,19:00,6.00000,R,ugm-3,17.00000,R,ugm-3,27.00000,R,ugm-3,44.00000,R,ugm-3
07-01-2012,20:00,15.00000,R,ugm-3,21.00000,R,ugm-3,44.00000,R,ugm-3,42.00000,R,ugm-3
07-01-2012,21:00,12.00000,R,ugm-3,23.00000,R,ugm-3,42.00000,R,ugm-3,44.00000,R,ugm-3
07-01-2012,22:00,17.00000,R,ugm-3,25.00000,R,ugm-3,52.00000,R,ugm-3,40.00000,R,ugm-3
07-01-2012,23:00,10.00000,R,ugm-3,21.00000,R,ugm-3,36.00000,R,ugm-3,46.00000,R,ugm-3
07-01-2012,24:00,11.00000,R,ugm-3,13.00000,R,ugm-3,31.00000,R,ugm-3,50.00000,R,ugm-3
08-01-2012,01:00,11.00000,R,ugm-3,11.00000,R,ugm-3,29.00000,R,ugm-3,54.00000,R,ugm-3
08-01-2012,02:00,4.00000,R,ugm-3,10.00000,R,ugm-3,15.00000,R,ugm-3,58.00000,R,ugm-3
08-01-2012,03:00,2.00000,R,ugm-3,4.00000,R,ugm-3,8.00000,R,ugm-3,60.00000,R,ugm-3
08-01-2012,04:00,0.00000,R,ugm-3,2.00000,R,ugm-3,2.00000,R,ugm-3,62.00000,R,ugm-3
08-01-2012,05:00,0.00000,R,ugm-3,2.00000,R,ugm-3,2.00000,R,ugm-3,60.00000,R,ugm-3
08-01-2012,06:00,0.00000,R,ugm-3,4.00000,R,ugm-3,4.00000,R,ugm-3,60.00000,R,ugm-3
08-01-2012,07:00,7.00000,R,ugm-3,13.00000,R,ugm-3,25.00000,R,ugm-3,48.00000,R,ugm-3
08-01-2012,08:00,16.00000,R,ugm-3,25.00000,R,ugm-3,50.00000,R,ugm-3,32.00000,R,ugm-3
08-01-2012,09:00,24.00000,R,ugm-3,31.00000,R,ugm-3,67.00000,R,ugm-3,32.00000,R,ugm-3
08-01-2012,10:00,21.00000,R,ugm-3,27.00000,R,ugm-3,59.00000,R,ugm-3,36.00000,R,ugm-3
08-01-2012,11:00,24.00000,R,ugm-3,29.00000,R,ugm-3,65.00000,R,ugm-3,34.00000,R,ugm-3
08-01-2012,12:00,10.00000,R,ugm-3,17.00000,R,ugm-3,33.00000,R,ugm-3,42.00000,R,ugm-3
08-01-2012,13:00,12.00000,R,ugm-3,17.00000,R,ugm-3,36.00000,R,ugm-3,40.00000,R,ugm-3
08-01-2012,14:00,14.00000,R,ugm-3,19.00000,R,ugm-3,40.00000,R,ugm-3,36.00000,R,ugm-3
08-01-2012,15:00,29.00000,R,ugm-3,23.00000,R,ugm-3,67.00000,R,ugm-3,30.00000,R,ugm-3
08-01-2012,16:00,71.00000,R,ugm-3,42.00000,R,ugm-3,151.00000,R,ugm-3,16.00000,R,ugm-3
08-01-2012,17:00,22.00000,R,ugm-3,33.00000,R,ugm-3,67.00000,R,ugm-3,22.00000,R,ugm-3
08-01-2012,18:00,17.00000,R,ugm-3,25.00000,R,ugm-3,52.00000,R,ugm-3,28.00000,R,ugm-3
08-01-2012,19:00,21.00000,R,ugm-3,23.00000,R,ugm-3,55.00000,R,ugm-3,26.00000,R,ugm-3
08-01-2012,20:00,19.00000,R,ugm-3,25.00000,R,ugm-3,54.00000,R,ugm-3,24.00000,R,ugm-3
08-01-2012,21:00,16.00000,R,ugm-3,27.00000,R,ugm-3,52.00000,R,ugm-3,24.00000,R,ugm-3
08-01-2012,22:00,36.00000,R,ugm-3,29.00000,R,ugm-3,84.00000,R,ugm-3,14.00000,R,ugm-3
08-01-2012,23:00,20.00000,R,ugm-3,38.00000,R,ugm-3,69.00000,R,ugm-3,14.00000,R,ugm-3
08-01-2012,24:00,1.00000,R,ugm-3,19.00000,R,ugm-3,21.00000,R,ugm-3,36.00000,R,ugm-3
09-01-2012,01:00,10.00000,R,ugm-3,23.00000,R,ugm-3,38.00000,R,ugm-3,26.00000,R,ugm-3
09-01-2012,02:00,0.00000,R,ugm-3,8.00000,R,ugm-3,8.00000,R,ugm-3,40.00000,R,ugm-3
09-01-2012,03:00,1.00000,R,ugm-3,6.00000,R,ugm-3,8.00000,R,ugm-3,48.00000,R,ugm-3
09-01-2012,04:00,1.00000,R,ugm-3,4.00000,R,ugm-3,6.00000,R,ugm-3,52.00000,R,ugm-3
09-01-2012,05:00,1.00000,R,ugm-3,6.00000,R,ugm-3,8.00000,R,ugm-3,50.00000,R,ugm-3
09-01-2012,06:00,15.00000,R,ugm-3,17.00000,R,ugm-3,40.00000,R,ugm-3,38.00000,R,ugm-3
09-01-2012,07:00,21.00000,R,ugm-3,19.00000,R,ugm-3,52.00000,R,ugm-3,36.00000,R,ugm-3
09-01-2012,08:00,36.00000,R,ugm-3,40.00000,R,ugm-3,96.00000,R,ugm-3,26.00000,R,ugm-3
09-01-2012,09:00,26.00000,R,ugm-3,29.00000,R,ugm-3,69.00000,R,ugm-3,36.00000,R,ugm-3
09-01-2012,10:00,26.00000,R,ugm-3,25.00000,R,ugm-3,65.00000,R,ugm-3,36.00000,R,ugm-3
09-01-2012,11:00,14.00000,R,ugm-3,19.00000,R,ugm-3,40.00000,R,ugm-3,42.00000,R,ugm-3
09-01-2012,12:00,12.00000,R,ugm-3,21.00000,R,ugm-3,40.00000,R,ugm-3,42.00000,R,ugm-3
09-01-2012,13:00,11.00000,R,ugm-3,17.00000,R,ugm-3,34.00000,R,ugm-3,42.00000,R,ugm-3
09-01-2012,14:00,16.00000,R,ugm-3,21.00000,R,ugm-3,46.00000,R,ugm-3,42.00000,R,ugm-3
09-01-2012,15:00,10.00000,R,ugm-3,19.00000,R,ugm-3,34.00000,R,ugm-3,42.00000,R,ugm-3
09-01-2012,16:00,17.00000,R,ugm-3,27.00000,R,ugm-3,54.00000,R,ugm-3,32.00000,R,ugm-3
09-01-2012,17:00,41.00000,R,ugm-3,36.00000,R,ugm-3,99.00000,R,ugm-3,18.00000,R,ugm-3
09-01-2012,18:00,26.00000,R,ugm-3,38.00000,R,ugm-3,78.00000,R,ugm-3,20.00000,R,ugm-3
09-01-2012,19:00,20.00000,R,ugm-3,36.00000,R,ugm-3,67.00000,R,ugm-3,26.00000,R,ugm-3
09-01-2012,20:00,20.00000,R,ugm-3,36.00000,R,ugm-3,67.00000,R,ugm-3,24.00000,R,ugm-3
09-01-2012,21:00,10.00000,R,ugm-3,25.00000,R,ugm-3,40.00000,R,ugm-3,36.00000,R,ugm-3
09-01-2012,22:00,11.00000,R,ugm-3,19.00000,R,ugm-3,36.00000,R,ugm-3,36.00000,R,ugm-3
09-01-2012,23:00,5.00000,R,ugm-3,19.00000,R,ugm-3,27.00000,R,ugm-3,40.00000,R,ugm-3
09-01-2012,24:00,5.00000,R,ugm-3,15.00000,R,ugm-3,23.00000,R,ugm-3,42.00000,R,ugm-3
10-01-2012,01:00,11.00000,R,ugm-3,27.00000,R,ugm-3,44.00000,R,ugm-3,26.00000,R,ugm-3
10-01-2012,02:00,2.00000,R,ugm-3,19.00000,R,ugm-3,23.00000,R,ugm-3,32.00000,R,ugm-3
10-01-2012,03:00,4.00000,R,ugm-3,15.00000,R,ugm-3,21.00000,R,ugm-3,34.00000,R,ugm-3
10-01-2012,04:00,2.00000,R,ugm-3,13.00000,R,ugm-3,17.00000,R,ugm-3,36.00000,R,ugm-3
10-01-2012,05:00,6.00000,R,ugm-3,15.00000,R,ugm-3,25.00000,R,ugm-3,40.00000,R,ugm-3
10-01-2012,06:00,60.00000,R,ugm-3,34.00000,R,ugm-3,126.00000,R,ugm-3,14.00000,R,ugm-3
10-01-2012,07:00,170.00000,R,ugm-3,57.00000,R,ugm-3,317.00000,R,ugm-3,4.00000,R,ugm-3
10-01-2012,08:00,227.00000,R,ugm-3,82.00000,R,ugm-3,430.00000,R,ugm-3,2.00000,R,ugm-3
10-01-2012,09:00,131.00000,R,ugm-3,78.00000,R,ugm-3,279.00000,R,ugm-3,4.00000,R,ugm-3
10-01-2012,10:00,70.00000,R,ugm-3,82.00000,R,ugm-3,189.00000,R,ugm-3,12.00000,R,ugm-3
10-01-2012,11:00,22.00000,R,ugm-3,31.00000,R,ugm-3,65.00000,R,ugm-3,36.00000,R,ugm-3
10-01-2012,12:00,16.00000,R,ugm-3,27.00000,R,ugm-3,52.00000,R,ugm-3,36.00000,R,ugm-3
10-01-2012,13:00,21.00000,R,ugm-3,29.00000,R,ugm-3,61.00000,R,ugm-3,36.00000,R,ugm-3
10-01-2012,14:00,39.00000,R,ugm-3,27.00000,R,ugm-3,86.00000,R,ugm-3,32.00000,R,ugm-3
10-01-2012,15:00,12.00000,R,ugm-3,25.00000,R,ugm-3,44.00000,R,ugm-3,38.00000,R,ugm-3
10-01-2012,16:00,15.00000,R,ugm-3,29.00000,R,ugm-3,52.00000,R,ugm-3,34.00000,R,ugm-3
10-01-2012,17:00,59.00000,R,ugm-3,48.00000,R,ugm-3,138.00000,R,ugm-3,16.00000,R,ugm-3
10-01-2012,18:00,30.00000,R,ugm-3,46.00000,R,ugm-3,92.00000,R,ugm-3,18.00000,R,ugm-3
10-01-2012,19:00,19.00000,R,ugm-3,36.00000,R,ugm-3,65.00000,R,ugm-3,26.00000,R,ugm-3
10-01-2012,20:00,24.00000,R,ugm-3,38.00000,R,ugm-3,75.00000,R,ugm-3,24.00000,R,ugm-3
10-01-2012,21:00,17.00000,R,ugm-3,31.00000,R,ugm-3,57.00000,R,ugm-3,32.00000,R,ugm-3
10-01-2012,22:00,17.00000,R,ugm-3,25.00000,R,ugm-3,52.00000,R,ugm-3,28.00000,R,ugm-3
10-01-2012,23:00,9.00000,R,ugm-3,25.00000,R,ugm-3,38.00000,R,ugm-3,32.00000,R,ugm-3
10-01-2012,24:00,2.00000,R,ugm-3,15.00000,R,ugm-3,19.00000,R,ugm-3,34.00000,R,ugm-3
11-01-2012,01:00,2.00000,R,ugm-3,21.00000,R,ugm-3,25.00000,R,ugm-3,26.00000,R,ugm-3
11-01-2012,02:00,5.00000,R,ugm-3,31.00000,R,ugm-3,38.00000,R,ugm-3,16.00000,R,ugm-3
11-01-2012,03:00,4.00000,R,ugm-3,23.00000,R,ugm-3,29.00000,R,ugm-3,20.00000,R,ugm-3
11-01-2012,04:00,16.00000,R,ugm-3,27.00000,R,ugm-3,52.00000,R,ugm-3,8.00000,R,ugm-3
11-01-2012,05:00,42.00000,R,ugm-3,33.00000,R,ugm-3,98.00000,R,ugm-3,4.00000,R,ugm-3
11-01-2012,06:00,145.00000,R,ugm-3,36.00000,R,ugm-3,258.00000,R,ugm-3,2.00000,R,ugm-3
11-01-2012,07:00,272.00000,R,ugm-3,42.00000,R,ugm-3,459.00000,R,ugm-3,2.00000,R,ugm-3
11-01-2012,08:00,388.00000,R,ugm-3,98.00000,R,ugm-3,692.00000,R,ugm-3,2.00000,R,ugm-3
11-01-2012,09:00,449.00000,R,ugm-3,119.00000,R,ugm-3,807.00000,R,ugm-3,2.00000,R,ugm-3
11-01-2012,10:00,466.00000,R,ugm-3,142.00000,R,ugm-3,857.00000,R,ugm-3,2.00000,R,ugm-3
11-01-2012,11:00,205.00000,R,ugm-3,136.00000,R,ugm-3,449.00000,R,ugm-3,12.00000,R,ugm-3
11-01-2012,12:00,19.00000,R,ugm-3,38.00000,R,ugm-3,67.00000,R,ugm-3,34.00000,R,ugm-3
11-01-2012,13:00,32.00000,R,ugm-3,33.00000,R,ugm-3,82.00000,R,ugm-3,36.00000,R,ugm-3
11-01-2012,14:00,30.00000,R,ugm-3,25.00000,R,ugm-3,71.00000,R,ugm-3,34.00000,R,ugm-3
11-01-2012,15:00,59.00000,R,ugm-3,42.00000,R,ugm-3,132.00000,R,ugm-3,24.00000,R,ugm-3
11-01-2012,16:00,151.00000,R,ugm-3,67.00000,R,ugm-3,298.00000,R,ugm-3,4.00000,R,ugm-3
11-01-2012,17:00,166.00000,R,ugm-3,55.00000,R,ugm-3,310.00000,R,ugm-3,6.00000,R,ugm-3
11-01-2012,18:00,191.00000,R,ugm-3,63.00000,R,ugm-3,356.00000,R,ugm-3,2.00000,R,ugm-3
11-01-2012,19:00,151.00000,R,ugm-3,80.00000,R,ugm-3,312.00000,R,ugm-3,2.00000,R,ugm-3
11-01-2012,20:00,183.00000,R,ugm-3,73.00000,R,ugm-3,354.00000,R,ugm-3,2.00000,R,ugm-3
11-01-2012,21:00,91.00000,R,ugm-3,84.00000,R,ugm-3,224.00000,R,ugm-3,4.00000,R,ugm-3
11-01-2012,22:00,35.00000,R,ugm-3,63.00000,R,ugm-3,117.00000,R,ugm-3,6.00000,R,ugm-3
11-01-2012,23:00,52.00000,R,ugm-3,48.00000,R,ugm-3,128.00000,R,ugm-3,4.00000,R,ugm-3
11-01-2012,24:00,21.00000,R,ugm-3,40.00000,R,ugm-3,73.00000,R,ugm-3,22.00000,R,ugm-3
12-01-2012,01:00,27.00000,R,ugm-3,42.00000,R,ugm-3,84.00000,R,ugm-3,8.00000,R,ugm-3
12-01-2012,02:00,16.00000,R,ugm-3,38.00000,R,ugm-3,63.00000,R,ugm-3,14.00000,R,ugm-3
12-01-2012,03:00,2.00000,R,ugm-3,25.00000,R,ugm-3,29.00000,R,ugm-3,32.00000,R,ugm-3
12-01-2012,04:00,0.00000,R,ugm-3,17.00000,R,ugm-3,17.00000,R,ugm-3,36.00000,R,ugm-3
12-01-2012,05:00,4.00000,R,ugm-3,13.00000,R,ugm-3,19.00000,R,ugm-3,44.00000,R,ugm-3
12-01-2012,06:00,11.00000,R,ugm-3,15.00000,R,ugm-3,33.00000,R,ugm-3,44.00000,R,ugm-3
12-01-2012,07:00,9.00000,R,ugm-3,17.00000,R,ugm-3,31.00000,R,ugm-3,46.00000,R,ugm-3
12-01-2012,08:00,16.00000,R,ugm-3,21.00000,R,ugm-3,46.00000,R,ugm-3,38.00000,R,ugm-3
12-01-2012,09:00,10.00000,R,ugm-3,19.00000,R,ugm-3,34.00000,R,ugm-3,44.00000,R,ugm-3
12-01-2012,10:00,,,,,,,,,,,,
12-01-2012,11:00,,,,,,,,,,,,
12-01-2012,12:00,,,,,,,,,,,,
12-01-2012,13:00,25.00000,R,ugm-3,21.00000,R,ugm-3,59.00000,R,ugm-3,38.00000,R,ugm-3
12-01-2012,14:00,47.00000,R,ugm-3,36.00000,R,ugm-3,109.00000,R,ugm-3,28.00000,R,ugm-3
12-01-2012,15:00,56.00000,R,ugm-3,46.00000,R,ugm-3,132.00000,R,ugm-3,22.00000,R,ugm-3
12-01-2012,16:00,70.00000,R,ugm-3,50.00000,R,ugm-3,157.00000,R,ugm-3,14.00000,R,ugm-3
12-01-2012,17:00,112.00000,R,ugm-3,48.00000,R,ugm-3,220.00000,R,ugm-3,12.00000,R,ugm-3
12-01-2012,18:00,85.00000,R,ugm-3,61.00000,R,ugm-3,191.00000,R,ugm-3,8.00000,R,ugm-3
12-01-2012,19:00,49.00000,R,ugm-3,50.00000,R,ugm-3,124.00000,R,ugm-3,16.00000,R,ugm-3
12-01-2012,20:00,37.00000,R,ugm-3,44.00000,R,ugm-3,101.00000,R,ugm-3,20.00000,R,ugm-3